Date AST Hour Ending, MW ,,,,,,,,,,,,,,,,,
12/1/2013 1:00,0,,,,,,,,,,,,,,,,,
12/1/2013 2:00,11,,,,,,,,,,,,,,,,,
12/1/2013 3:00,9,,,,,,,,,,,,,,,,,
12/1/2013 4:00,2,,,,,,,,,,,,,,,,,
12/1/2013 5:00,0,,,,,,,,,,,,,,,,,
12/1/2013 6:00,0,,,,,,,,,,,,,,,,,
12/1/2013 7:00,7,,,,,,,,,,,,,,,,,
12/1/2013 8:00,-1,,,,,,,,,,,,,,,,,
12/1/2013 9:00,-1,,,,,,,,,,,,,,,,,
12/1/2013 10:00,-1,,,,,,,,,,,,,,,,,
12/1/2013 11:00,2,,,,,,,,,,,,,,,,,
12/1/2013 12:00,-1,,,,,,,,,,,,,,,,,
12/1/2013 13:00,1,,,,,,,,,,,,,,,,,
12/1/2013 14:00,-1,,,,,,,,,,,,,,,,,
12/1/2013 15:00,-2,,,,,,,,,,,,,,,,,
12/1/2013 16:00,-5,,,,,,,,,,,,,,,,,
12/1/2013 17:00,-8,,,,,,,,,,,,,,,,,
12/1/2013 18:00,3,,,,,,,,,,,,,,,,,
12/1/2013 19:00,2,,,,,,,,,,,,,,,,,
12/1/2013 20:00,-2,,,,,,,,,,,,,,,,,
12/1/2013 21:00,5,,,,,,,,,,,,,,,,,
12/1/2013 22:00,1,,,,,,,,,,,,,,,,,
12/1/2013 23:00,5,,,,,,,,,,,,,,,,,
12/2/2013 0:00,6,,,,,,,,,,,,,,,,,
12/2/2013 1:00,0,,,,,,,,,,,,,,,,,
12/2/2013 2:00,2,,,,,,,,,,,,,,,,,
12/2/2013 3:00,-58,,,,,,,,,,,,,,,,,
12/2/2013 4:00,-82,,,,,,,,,,,,,,,,,
12/2/2013 5:00,-104,,,,,,,,,,,,,,,,,
12/2/2013 6:00,-111,,,,,,,,,,,,,,,,,
12/2/2013 7:00,-43,,,,,,,,,,,,,,,,,
12/2/2013 8:00,1,,,,,,,,,,,,,,,,,
12/2/2013 9:00,8,,,,,,,,,,,,,,,,,
12/2/2013 10:00,-8,,,,,,,,,,,,,,,,,
12/2/2013 11:00,0,,,,,,,,,,,,,,,,,
12/2/2013 12:00,-1,,,,,,,,,,,,,,,,,
12/2/2013 13:00,-7,,,,,,,,,,,,,,,,,
12/2/2013 14:00,5,,,,,,,,,,,,,,,,,
12/2/2013 15:00,0,,,,,,,,,,,,,,,,,
12/2/2013 16:00,0,,,,,,,,,,,,,,,,,
12/2/2013 17:00,-3,,,,,,,,,,,,,,,,,
12/2/2013 18:00,1,,,,,,,,,,,,,,,,,
12/2/2013 19:00,2,,,,,,,,,,,,,,,,,
12/2/2013 20:00,2,,,,,,,,,,,,,,,,,
12/2/2013 21:00,2,,,,,,,,,,,,,,,,,
12/2/2013 22:00,0,,,,,,,,,,,,,,,,,
12/2/2013 23:00,3,,,,,,,,,,,,,,,,,
12/3/2013 0:00,1,,,,,,,,,,,,,,,,,
12/3/2013 1:00,-9,,,,,,,,,,,,,,,,,
12/3/2013 2:00,-2,,,,,,,,,,,,,,,,,
12/3/2013 3:00,1,,,,,,,,,,,,,,,,,
12/3/2013 4:00,-1,,,,,,,,,,,,,,,,,
12/3/2013 5:00,2,,,,,,,,,,,,,,,,,
12/3/2013 6:00,11,,,,,,,,,,,,,,,,,
12/3/2013 7:00,-7,,,,,,,,,,,,,,,,,
12/3/2013 8:00,-2,,,,,,,,,,,,,,,,,
12/3/2013 9:00,-1,,,,,,,,,,,,,,,,,
12/3/2013 10:00,-1,,,,,,,,,,,,,,,,,
12/3/2013 11:00,1,,,,,,,,,,,,,,,,,
12/3/2013 12:00,0,,,,,,,,,,,,,,,,,
12/3/2013 13:00,-1,,,,,,,,,,,,,,,,,
12/3/2013 14:00,1,,,,,,,,,,,,,,,,,
12/3/2013 15:00,2,,,,,,,,,,,,,,,,,
12/3/2013 16:00,-1,,,,,,,,,,,,,,,,,
12/3/2013 17:00,-3,,,,,,,,,,,,,,,,,
12/3/2013 18:00,1,,,,,,,,,,,,,,,,,
12/3/2013 19:00,2,,,,,,,,,,,,,,,,,
12/3/2013 20:00,4,,,,,,,,,,,,,,,,,
12/3/2013 21:00,3,,,,,,,,,,,,,,,,,
12/3/2013 22:00,2,,,,,,,,,,,,,,,,,
12/3/2013 23:00,15,,,,,,,,,,,,,,,,,
12/4/2013 0:00,0,,,,,,,,,,,,,,,,,
12/4/2013 1:00,-3,,,,,,,,,,,,,,,,,
12/4/2013 2:00,-1,,,,,,,,,,,,,,,,,
12/4/2013 3:00,1,,,,,,,,,,,,,,,,,
12/4/2013 4:00,-4,,,,,,,,,,,,,,,,,
12/4/2013 5:00,-2,,,,,,,,,,,,,,,,,
12/4/2013 6:00,-4,,,,,,,,,,,,,,,,,
12/4/2013 7:00,-16,,,,,,,,,,,,,,,,,
12/4/2013 8:00,2,,,,,,,,,,,,,,,,,
12/4/2013 9:00,1,,,,,,,,,,,,,,,,,
12/4/2013 10:00,-1,,,,,,,,,,,,,,,,,
12/4/2013 11:00,-5,,,,,,,,,,,,,,,,,
12/4/2013 12:00,1,,,,,,,,,,,,,,,,,
12/4/2013 13:00,1,,,,,,,,,,,,,,,,,
12/4/2013 14:00,4,,,,,,,,,,,,,,,,,
12/4/2013 15:00,0,,,,,,,,,,,,,,,,,
12/4/2013 16:00,-1,,,,,,,,,,,,,,,,,
12/4/2013 17:00,1,,,,,,,,,,,,,,,,,
12/4/2013 18:00,-6,,,,,,,,,,,,,,,,,
12/4/2013 19:00,1,,,,,,,,,,,,,,,,,
12/4/2013 20:00,3,,,,,,,,,,,,,,,,,
12/4/2013 21:00,-1,,,,,,,,,,,,,,,,,
12/4/2013 22:00,-1,,,,,,,,,,,,,,,,,
12/4/2013 23:00,0,,,,,,,,,,,,,,,,,
12/5/2013 0:00,-2,,,,,,,,,,,,,,,,,
12/5/2013 1:00,-14,,,,,,,,,,,,,,,,,
12/5/2013 2:00,-5,,,,,,,,,,,,,,,,,
12/5/2013 3:00,1,,,,,,,,,,,,,,,,,
12/5/2013 4:00,5,,,,,,,,,,,,,,,,,
12/5/2013 5:00,6,,,,,,,,,,,,,,,,,
12/5/2013 6:00,0,,,,,,,,,,,,,,,,,
12/5/2013 7:00,-5,,,,,,,,,,,,,,,,,
12/5/2013 8:00,1,,,,,,,,,,,,,,,,,
12/5/2013 9:00,2,,,,,,,,,,,,,,,,,
12/5/2013 10:00,2,,,,,,,,,,,,,,,,,
12/5/2013 11:00,-2,,,,,,,,,,,,,,,,,
12/5/2013 12:00,1,,,,,,,,,,,,,,,,,
12/5/2013 13:00,-56,,,,,,,,,,,,,,,,,
12/5/2013 14:00,-74,,,,,,,,,,,,,,,,,
12/5/2013 15:00,-71,,,,,,,,,,,,,,,,,
12/5/2013 16:00,-33,,,,,,,,,,,,,,,,,
12/5/2013 17:00,-2,,,,,,,,,,,,,,,,,
12/5/2013 18:00,4,,,,,,,,,,,,,,,,,
12/5/2013 19:00,2,,,,,,,,,,,,,,,,,
12/5/2013 20:00,1,,,,,,,,,,,,,,,,,
12/5/2013 21:00,2,,,,,,,,,,,,,,,,,
12/5/2013 22:00,1,,,,,,,,,,,,,,,,,
12/5/2013 23:00,6,,,,,,,,,,,,,,,,,
12/6/2013 0:00,5,,,,,,,,,,,,,,,,,
12/6/2013 1:00,-9,,,,,,,,,,,,,,,,,
12/6/2013 2:00,-4,,,,,,,,,,,,,,,,,
12/6/2013 3:00,4,,,,,,,,,,,,,,,,,
12/6/2013 4:00,15,,,,,,,,,,,,,,,,,
12/6/2013 5:00,-7,,,,,,,,,,,,,,,,,
12/6/2013 6:00,-2,,,,,,,,,,,,,,,,,
12/6/2013 7:00,-3,,,,,,,,,,,,,,,,,
12/6/2013 8:00,0,,,,,,,,,,,,,,,,,
12/6/2013 9:00,2,,,,,,,,,,,,,,,,,
12/6/2013 10:00,-7,,,,,,,,,,,,,,,,,
12/6/2013 11:00,3,,,,,,,,,,,,,,,,,
12/6/2013 12:00,5,,,,,,,,,,,,,,,,,
12/6/2013 13:00,-25,,,,,,,,,,,,,,,,,
12/6/2013 14:00,-41,,,,,,,,,,,,,,,,,
12/6/2013 15:00,-54,,,,,,,,,,,,,,,,,
12/6/2013 16:00,-21,,,,,,,,,,,,,,,,,
12/6/2013 17:00,-5,,,,,,,,,,,,,,,,,
12/6/2013 18:00,-1,,,,,,,,,,,,,,,,,
12/6/2013 19:00,-68,,,,,,,,,,,,,,,,,
12/6/2013 20:00,-49,,,,,,,,,,,,,,,,,
12/6/2013 21:00,-29,,,,,,,,,,,,,,,,,
12/6/2013 22:00,-27,,,,,,,,,,,,,,,,,
12/6/2013 23:00,-42,,,,,,,,,,,,,,,,,
12/7/2013 0:00,-45,,,,,,,,,,,,,,,,,
12/7/2013 1:00,-38,,,,,,,,,,,,,,,,,
12/7/2013 2:00,-45,,,,,,,,,,,,,,,,,
12/7/2013 3:00,-52,,,,,,,,,,,,,,,,,
12/7/2013 4:00,-55,,,,,,,,,,,,,,,,,
12/7/2013 5:00,-57,,,,,,,,,,,,,,,,,
12/7/2013 6:00,-46,,,,,,,,,,,,,,,,,
12/7/2013 7:00,-47,,,,,,,,,,,,,,,,,
12/7/2013 8:00,-49,,,,,,,,,,,,,,,,,
12/7/2013 9:00,-50,,,,,,,,,,,,,,,,,
12/7/2013 10:00,-52,,,,,,,,,,,,,,,,,
12/7/2013 11:00,-40,,,,,,,,,,,,,,,,,
12/7/2013 12:00,1,,,,,,,,,,,,,,,,,
12/7/2013 13:00,6,,,,,,,,,,,,,,,,,
12/7/2013 14:00,1,,,,,,,,,,,,,,,,,
12/7/2013 15:00,-1,,,,,,,,,,,,,,,,,
12/7/2013 16:00,-4,,,,,,,,,,,,,,,,,
12/7/2013 17:00,-2,,,,,,,,,,,,,,,,,
12/7/2013 18:00,2,,,,,,,,,,,,,,,,,
12/7/2013 19:00,3,,,,,,,,,,,,,,,,,
12/7/2013 20:00,2,,,,,,,,,,,,,,,,,
12/7/2013 21:00,0,,,,,,,,,,,,,,,,,
12/7/2013 22:00,5,,,,,,,,,,,,,,,,,
12/7/2013 23:00,2,,,,,,,,,,,,,,,,,
12/8/2013 0:00,1,,,,,,,,,,,,,,,,,
12/8/2013 1:00,1,,,,,,,,,,,,,,,,,
12/8/2013 2:00,4,,,,,,,,,,,,,,,,,
12/8/2013 3:00,2,,,,,,,,,,,,,,,,,
12/8/2013 4:00,0,,,,,,,,,,,,,,,,,
12/8/2013 5:00,-11,,,,,,,,,,,,,,,,,
12/8/2013 6:00,-2,,,,,,,,,,,,,,,,,
12/8/2013 7:00,-4,,,,,,,,,,,,,,,,,
12/8/2013 8:00,0,,,,,,,,,,,,,,,,,
12/8/2013 9:00,-2,,,,,,,,,,,,,,,,,
12/8/2013 10:00,7,,,,,,,,,,,,,,,,,
12/8/2013 11:00,4,,,,,,,,,,,,,,,,,
12/8/2013 12:00,-2,,,,,,,,,,,,,,,,,
12/8/2013 13:00,4,,,,,,,,,,,,,,,,,
12/8/2013 14:00,2,,,,,,,,,,,,,,,,,
12/8/2013 15:00,-3,,,,,,,,,,,,,,,,,
12/8/2013 16:00,-4,,,,,,,,,,,,,,,,,
12/8/2013 17:00,-2,,,,,,,,,,,,,,,,,
12/8/2013 18:00,3,,,,,,,,,,,,,,,,,
12/8/2013 19:00,-3,,,,,,,,,,,,,,,,,
12/8/2013 20:00,1,,,,,,,,,,,,,,,,,
12/8/2013 21:00,-41,,,,,,,,,,,,,,,,,
12/8/2013 22:00,-38,,,,,,,,,,,,,,,,,
12/8/2013 23:00,3,,,,,,,,,,,,,,,,,
12/9/2013 0:00,0,,,,,,,,,,,,,,,,,
12/9/2013 1:00,3,,,,,,,,,,,,,,,,,
12/9/2013 2:00,3,,,,,,,,,,,,,,,,,
12/9/2013 3:00,0,,,,,,,,,,,,,,,,,
12/9/2013 4:00,7,,,,,,,,,,,,,,,,,
12/9/2013 5:00,-3,,,,,,,,,,,,,,,,,
12/9/2013 6:00,-13,,,,,,,,,,,,,,,,,
12/9/2013 7:00,-23,,,,,,,,,,,,,,,,,
12/9/2013 8:00,-6,,,,,,,,,,,,,,,,,
12/9/2013 9:00,1,,,,,,,,,,,,,,,,,
12/9/2013 10:00,0,,,,,,,,,,,,,,,,,
12/9/2013 11:00,-1,,,,,,,,,,,,,,,,,
12/9/2013 12:00,10,,,,,,,,,,,,,,,,,
12/9/2013 13:00,32,,,,,,,,,,,,,,,,,
12/9/2013 14:00,59,,,,,,,,,,,,,,,,,
12/9/2013 15:00,0,,,,,,,,,,,,,,,,,
12/9/2013 16:00,-1,,,,,,,,,,,,,,,,,
12/9/2013 17:00,-2,,,,,,,,,,,,,,,,,
12/9/2013 18:00,-58,,,,,,,,,,,,,,,,,
12/9/2013 19:00,-67,,,,,,,,,,,,,,,,,
12/9/2013 20:00,0,,,,,,,,,,,,,,,,,
12/9/2013 21:00,-59,,,,,,,,,,,,,,,,,
12/9/2013 22:00,-52,,,,,,,,,,,,,,,,,
12/9/2013 23:00,-45,,,,,,,,,,,,,,,,,
12/10/2013 0:00,-16,,,,,,,,,,,,,,,,,
12/10/2013 1:00,-7,,,,,,,,,,,,,,,,,
12/10/2013 2:00,-2,,,,,,,,,,,,,,,,,
12/10/2013 3:00,-1,,,,,,,,,,,,,,,,,
12/10/2013 4:00,7,,,,,,,,,,,,,,,,,
12/10/2013 5:00,7,,,,,,,,,,,,,,,,,
12/10/2013 6:00,3,,,,,,,,,,,,,,,,,
12/10/2013 7:00,-11,,,,,,,,,,,,,,,,,
12/10/2013 8:00,1,,,,,,,,,,,,,,,,,
12/10/2013 9:00,1,,,,,,,,,,,,,,,,,
12/10/2013 10:00,-3,,,,,,,,,,,,,,,,,
12/10/2013 11:00,0,,,,,,,,,,,,,,,,,
12/10/2013 12:00,-8,,,,,,,,,,,,,,,,,
12/10/2013 13:00,-16,,,,,,,,,,,,,,,,,
12/10/2013 14:00,-100,,,,,,,,,,,,,,,,,
12/10/2013 15:00,-100,,,,,,,,,,,,,,,,,
12/10/2013 16:00,-98,,,,,,,,,,,,,,,,,
12/10/2013 17:00,-95,,,,,,,,,,,,,,,,,
12/10/2013 18:00,-5,,,,,,,,,,,,,,,,,
12/10/2013 19:00,2,,,,,,,,,,,,,,,,,
12/10/2013 20:00,9,,,,,,,,,,,,,,,,,
12/10/2013 21:00,15,,,,,,,,,,,,,,,,,
12/10/2013 22:00,14,,,,,,,,,,,,,,,,,
12/10/2013 23:00,16,,,,,,,,,,,,,,,,,
12/11/2013 0:00,13,,,,,,,,,,,,,,,,,
12/11/2013 1:00,1,,,,,,,,,,,,,,,,,
12/11/2013 2:00,-3,,,,,,,,,,,,,,,,,
12/11/2013 3:00,1,,,,,,,,,,,,,,,,,
12/11/2013 4:00,7,,,,,,,,,,,,,,,,,
12/11/2013 5:00,-1,,,,,,,,,,,,,,,,,
12/11/2013 6:00,1,,,,,,,,,,,,,,,,,
12/11/2013 7:00,-5,,,,,,,,,,,,,,,,,
12/11/2013 8:00,-3,,,,,,,,,,,,,,,,,
12/11/2013 9:00,2,,,,,,,,,,,,,,,,,
12/11/2013 10:00,-1,,,,,,,,,,,,,,,,,
12/11/2013 11:00,3,,,,,,,,,,,,,,,,,
12/11/2013 12:00,1,,,,,,,,,,,,,,,,,
12/11/2013 13:00,0,,,,,,,,,,,,,,,,,
12/11/2013 14:00,11,,,,,,,,,,,,,,,,,
12/11/2013 15:00,5,,,,,,,,,,,,,,,,,
12/11/2013 16:00,-8,,,,,,,,,,,,,,,,,
12/11/2013 17:00,-50,,,,,,,,,,,,,,,,,
12/11/2013 18:00,-50,,,,,,,,,,,,,,,,,
12/11/2013 19:00,-48,,,,,,,,,,,,,,,,,
12/11/2013 20:00,-49,,,,,,,,,,,,,,,,,
12/11/2013 21:00,-57,,,,,,,,,,,,,,,,,
12/11/2013 22:00,-53,,,,,,,,,,,,,,,,,
12/11/2013 23:00,-45,,,,,,,,,,,,,,,,,
12/12/2013 0:00,0,,,,,,,,,,,,,,,,,
12/12/2013 1:00,2,,,,,,,,,,,,,,,,,
12/12/2013 2:00,1,,,,,,,,,,,,,,,,,
12/12/2013 3:00,1,,,,,,,,,,,,,,,,,
12/12/2013 4:00,3,,,,,,,,,,,,,,,,,
12/12/2013 5:00,0,,,,,,,,,,,,,,,,,
12/12/2013 6:00,-6,,,,,,,,,,,,,,,,,
12/12/2013 7:00,-8,,,,,,,,,,,,,,,,,
12/12/2013 8:00,2,,,,,,,,,,,,,,,,,
12/12/2013 9:00,52,,,,,,,,,,,,,,,,,
12/12/2013 10:00,52,,,,,,,,,,,,,,,,,
12/12/2013 11:00,19,,,,,,,,,,,,,,,,,
12/12/2013 12:00,3,,,,,,,,,,,,,,,,,
12/12/2013 13:00,42,,,,,,,,,,,,,,,,,
12/12/2013 14:00,103,,,,,,,,,,,,,,,,,
12/12/2013 15:00,97,,,,,,,,,,,,,,,,,
12/12/2013 16:00,19,,,,,,,,,,,,,,,,,
12/12/2013 17:00,-30,,,,,,,,,,,,,,,,,
12/12/2013 18:00,-27,,,,,,,,,,,,,,,,,
12/12/2013 19:00,-50,,,,,,,,,,,,,,,,,
12/12/2013 20:00,-64,,,,,,,,,,,,,,,,,
12/12/2013 21:00,-68,,,,,,,,,,,,,,,,,
12/12/2013 22:00,-65,,,,,,,,,,,,,,,,,
12/12/2013 23:00,-57,,,,,,,,,,,,,,,,,
12/13/2013 0:00,-83,,,,,,,,,,,,,,,,,
12/13/2013 1:00,-55,,,,,,,,,,,,,,,,,
12/13/2013 2:00,-17,,,,,,,,,,,,,,,,,
12/13/2013 3:00,0,,,,,,,,,,,,,,,,,
12/13/2013 4:00,1,,,,,,,,,,,,,,,,,
12/13/2013 5:00,-10,,,,,,,,,,,,,,,,,
12/13/2013 6:00,-7,,,,,,,,,,,,,,,,,
12/13/2013 7:00,-5,,,,,,,,,,,,,,,,,
12/13/2013 8:00,-89,,,,,,,,,,,,,,,,,
12/13/2013 9:00,-96,,,,,,,,,,,,,,,,,
12/13/2013 10:00,-93,,,,,,,,,,,,,,,,,
12/13/2013 11:00,-75,,,,,,,,,,,,,,,,,
12/13/2013 12:00,-43,,,,,,,,,,,,,,,,,
12/13/2013 13:00,-26,,,,,,,,,,,,,,,,,
12/13/2013 14:00,2,,,,,,,,,,,,,,,,,
12/13/2013 15:00,6,,,,,,,,,,,,,,,,,
12/13/2013 16:00,11,,,,,,,,,,,,,,,,,
12/13/2013 17:00,10,,,,,,,,,,,,,,,,,
12/13/2013 18:00,2,,,,,,,,,,,,,,,,,
12/13/2013 19:00,1,,,,,,,,,,,,,,,,,
12/13/2013 20:00,3,,,,,,,,,,,,,,,,,
12/13/2013 21:00,5,,,,,,,,,,,,,,,,,
12/13/2013 22:00,11,,,,,,,,,,,,,,,,,
12/13/2013 23:00,12,,,,,,,,,,,,,,,,,
12/14/2013 0:00,63,,,,,,,,,,,,,,,,,
12/14/2013 1:00,96,,,,,,,,,,,,,,,,,
12/14/2013 2:00,158,,,,,,,,,,,,,,,,,
12/14/2013 3:00,157,,,,,,,,,,,,,,,,,
12/14/2013 4:00,162,,,,,,,,,,,,,,,,,
12/14/2013 5:00,154,,,,,,,,,,,,,,,,,
12/14/2013 6:00,119,,,,,,,,,,,,,,,,,
12/14/2013 7:00,75,,,,,,,,,,,,,,,,,
12/14/2013 8:00,5,,,,,,,,,,,,,,,,,
12/14/2013 9:00,0,,,,,,,,,,,,,,,,,
12/14/2013 10:00,2,,,,,,,,,,,,,,,,,
12/14/2013 11:00,1,,,,,,,,,,,,,,,,,
12/14/2013 12:00,4,,,,,,,,,,,,,,,,,
12/14/2013 13:00,5,,,,,,,,,,,,,,,,,
12/14/2013 14:00,8,,,,,,,,,,,,,,,,,
12/14/2013 15:00,17,,,,,,,,,,,,,,,,,
12/14/2013 16:00,-1,,,,,,,,,,,,,,,,,
12/14/2013 17:00,0,,,,,,,,,,,,,,,,,
12/14/2013 18:00,7,,,,,,,,,,,,,,,,,
12/14/2013 19:00,1,,,,,,,,,,,,,,,,,
12/14/2013 20:00,1,,,,,,,,,,,,,,,,,
12/14/2013 21:00,51,,,,,,,,,,,,,,,,,
12/14/2013 22:00,-1,,,,,,,,,,,,,,,,,
12/14/2013 23:00,2,,,,,,,,,,,,,,,,,
12/15/2013 0:00,6,,,,,,,,,,,,,,,,,
12/15/2013 1:00,3,,,,,,,,,,,,,,,,,
12/15/2013 2:00,13,,,,,,,,,,,,,,,,,
12/15/2013 3:00,-6,,,,,,,,,,,,,,,,,
12/15/2013 4:00,6,,,,,,,,,,,,,,,,,
12/15/2013 5:00,-7,,,,,,,,,,,,,,,,,
12/15/2013 6:00,0,,,,,,,,,,,,,,,,,
12/15/2013 7:00,6,,,,,,,,,,,,,,,,,
12/15/2013 8:00,2,,,,,,,,,,,,,,,,,
12/15/2013 9:00,-4,,,,,,,,,,,,,,,,,
12/15/2013 10:00,2,,,,,,,,,,,,,,,,,
12/15/2013 11:00,3,,,,,,,,,,,,,,,,,
12/15/2013 12:00,-2,,,,,,,,,,,,,,,,,
12/15/2013 13:00,1,,,,,,,,,,,,,,,,,
12/15/2013 14:00,3,,,,,,,,,,,,,,,,,
12/15/2013 15:00,9,,,,,,,,,,,,,,,,,
12/15/2013 16:00,-8,,,,,,,,,,,,,,,,,
12/15/2013 17:00,0,,,,,,,,,,,,,,,,,
12/15/2013 18:00,0,,,,,,,,,,,,,,,,,
12/15/2013 19:00,48,,,,,,,,,,,,,,,,,
12/15/2013 20:00,43,,,,,,,,,,,,,,,,,
12/15/2013 21:00,47,,,,,,,,,,,,,,,,,
12/15/2013 22:00,52,,,,,,,,,,,,,,,,,
12/15/2013 23:00,87,,,,,,,,,,,,,,,,,
12/16/2013 0:00,112,,,,,,,,,,,,,,,,,
12/16/2013 1:00,109,,,,,,,,,,,,,,,,,
12/16/2013 2:00,75,,,,,,,,,,,,,,,,,
12/16/2013 3:00,106,,,,,,,,,,,,,,,,,
12/16/2013 4:00,95,,,,,,,,,,,,,,,,,
12/16/2013 5:00,105,,,,,,,,,,,,,,,,,
12/16/2013 6:00,90,,,,,,,,,,,,,,,,,
12/16/2013 7:00,154,,,,,,,,,,,,,,,,,
12/16/2013 8:00,110,,,,,,,,,,,,,,,,,
12/16/2013 9:00,140,,,,,,,,,,,,,,,,,
12/16/2013 10:00,137,,,,,,,,,,,,,,,,,
12/16/2013 11:00,52,,,,,,,,,,,,,,,,,
12/16/2013 12:00,5,,,,,,,,,,,,,,,,,
12/16/2013 13:00,-1,,,,,,,,,,,,,,,,,
12/16/2013 14:00,3,,,,,,,,,,,,,,,,,
12/16/2013 15:00,0,,,,,,,,,,,,,,,,,
12/16/2013 16:00,-2,,,,,,,,,,,,,,,,,
12/16/2013 17:00,-3,,,,,,,,,,,,,,,,,
12/16/2013 18:00,-3,,,,,,,,,,,,,,,,,
12/16/2013 19:00,0,,,,,,,,,,,,,,,,,
12/16/2013 20:00,-1,,,,,,,,,,,,,,,,,
12/16/2013 21:00,3,,,,,,,,,,,,,,,,,
12/16/2013 22:00,2,,,,,,,,,,,,,,,,,
12/16/2013 23:00,12,,,,,,,,,,,,,,,,,
12/17/2013 0:00,47,,,,,,,,,,,,,,,,,
12/17/2013 1:00,47,,,,,,,,,,,,,,,,,
12/17/2013 2:00,30,,,,,,,,,,,,,,,,,
12/17/2013 3:00,5,,,,,,,,,,,,,,,,,
12/17/2013 4:00,-10,,,,,,,,,,,,,,,,,
12/17/2013 5:00,-4,,,,,,,,,,,,,,,,,
12/17/2013 6:00,-5,,,,,,,,,,,,,,,,,
12/17/2013 7:00,-10,,,,,,,,,,,,,,,,,
12/17/2013 8:00,9,,,,,,,,,,,,,,,,,
12/17/2013 9:00,2,,,,,,,,,,,,,,,,,
12/17/2013 10:00,-2,,,,,,,,,,,,,,,,,
12/17/2013 11:00,-4,,,,,,,,,,,,,,,,,
12/17/2013 12:00,-91,,,,,,,,,,,,,,,,,
12/17/2013 13:00,-44,,,,,,,,,,,,,,,,,
12/17/2013 14:00,-5,,,,,,,,,,,,,,,,,
12/17/2013 15:00,-90,,,,,,,,,,,,,,,,,
12/17/2013 16:00,-91,,,,,,,,,,,,,,,,,
12/17/2013 17:00,-95,,,,,,,,,,,,,,,,,
12/17/2013 18:00,-90,,,,,,,,,,,,,,,,,
12/17/2013 19:00,-76,,,,,,,,,,,,,,,,,
12/17/2013 20:00,-98,,,,,,,,,,,,,,,,,
12/17/2013 21:00,-102,,,,,,,,,,,,,,,,,
12/17/2013 22:00,-91,,,,,,,,,,,,,,,,,
12/17/2013 23:00,-76,,,,,,,,,,,,,,,,,
12/18/2013 0:00,-64,,,,,,,,,,,,,,,,,
12/18/2013 1:00,-87,,,,,,,,,,,,,,,,,
12/18/2013 2:00,-88,,,,,,,,,,,,,,,,,
12/18/2013 3:00,-34,,,,,,,,,,,,,,,,,
12/18/2013 4:00,12,,,,,,,,,,,,,,,,,
12/18/2013 5:00,9,,,,,,,,,,,,,,,,,
12/18/2013 6:00,12,,,,,,,,,,,,,,,,,
12/18/2013 7:00,1,,,,,,,,,,,,,,,,,
12/18/2013 8:00,-8,,,,,,,,,,,,,,,,,
12/18/2013 9:00,-3,,,,,,,,,,,,,,,,,
12/18/2013 10:00,-7,,,,,,,,,,,,,,,,,
12/18/2013 11:00,-5,,,,,,,,,,,,,,,,,
12/18/2013 12:00,6,,,,,,,,,,,,,,,,,
12/18/2013 13:00,-1,,,,,,,,,,,,,,,,,
12/18/2013 14:00,-2,,,,,,,,,,,,,,,,,
12/18/2013 15:00,-68,,,,,,,,,,,,,,,,,
12/18/2013 16:00,-97,,,,,,,,,,,,,,,,,
12/18/2013 17:00,-109,,,,,,,,,,,,,,,,,
12/18/2013 18:00,-91,,,,,,,,,,,,,,,,,
12/18/2013 19:00,-89,,,,,,,,,,,,,,,,,
12/18/2013 20:00,-99,,,,,,,,,,,,,,,,,
12/18/2013 21:00,-6,,,,,,,,,,,,,,,,,
12/18/2013 22:00,4,,,,,,,,,,,,,,,,,
12/18/2013 23:00,11,,,,,,,,,,,,,,,,,
12/19/2013 0:00,-1,,,,,,,,,,,,,,,,,
12/19/2013 1:00,-6,,,,,,,,,,,,,,,,,
12/19/2013 2:00,-7,,,,,,,,,,,,,,,,,
12/19/2013 3:00,-4,,,,,,,,,,,,,,,,,
12/19/2013 4:00,13,,,,,,,,,,,,,,,,,
12/19/2013 5:00,11,,,,,,,,,,,,,,,,,
12/19/2013 6:00,-1,,,,,,,,,,,,,,,,,
12/19/2013 7:00,-10,,,,,,,,,,,,,,,,,
12/19/2013 8:00,2,,,,,,,,,,,,,,,,,
12/19/2013 9:00,1,,,,,,,,,,,,,,,,,
12/19/2013 10:00,-1,,,,,,,,,,,,,,,,,
12/19/2013 11:00,45,,,,,,,,,,,,,,,,,
12/19/2013 12:00,3,,,,,,,,,,,,,,,,,
12/19/2013 13:00,-9,,,,,,,,,,,,,,,,,
12/19/2013 14:00,4,,,,,,,,,,,,,,,,,
12/19/2013 15:00,0,,,,,,,,,,,,,,,,,
12/19/2013 16:00,-10,,,,,,,,,,,,,,,,,
12/19/2013 17:00,-77,,,,,,,,,,,,,,,,,
12/19/2013 18:00,-87,,,,,,,,,,,,,,,,,
12/19/2013 19:00,-77,,,,,,,,,,,,,,,,,
12/19/2013 20:00,-1,,,,,,,,,,,,,,,,,
12/19/2013 21:00,-1,,,,,,,,,,,,,,,,,
12/19/2013 22:00,2,,,,,,,,,,,,,,,,,
12/19/2013 23:00,12,,,,,,,,,,,,,,,,,
12/20/2013 0:00,0,,,,,,,,,,,,,,,,,
12/20/2013 1:00,-4,,,,,,,,,,,,,,,,,
12/20/2013 2:00,0,,,,,,,,,,,,,,,,,
12/20/2013 3:00,-2,,,,,,,,,,,,,,,,,
12/20/2013 4:00,6,,,,,,,,,,,,,,,,,
12/20/2013 5:00,4,,,,,,,,,,,,,,,,,
12/20/2013 6:00,-15,,,,,,,,,,,,,,,,,
12/20/2013 7:00,-10,,,,,,,,,,,,,,,,,
12/20/2013 8:00,-97,,,,,,,,,,,,,,,,,
12/20/2013 9:00,-101,,,,,,,,,,,,,,,,,
12/20/2013 10:00,-96,,,,,,,,,,,,,,,,,
12/20/2013 11:00,-94,,,,,,,,,,,,,,,,,
12/20/2013 12:00,-92,,,,,,,,,,,,,,,,,
12/20/2013 13:00,-61,,,,,,,,,,,,,,,,,
12/20/2013 14:00,-56,,,,,,,,,,,,,,,,,
12/20/2013 15:00,-39,,,,,,,,,,,,,,,,,
12/20/2013 16:00,-39,,,,,,,,,,,,,,,,,
12/20/2013 17:00,-5,,,,,,,,,,,,,,,,,
12/20/2013 18:00,-2,,,,,,,,,,,,,,,,,
12/20/2013 19:00,2,,,,,,,,,,,,,,,,,
12/20/2013 20:00,3,,,,,,,,,,,,,,,,,
12/20/2013 21:00,7,,,,,,,,,,,,,,,,,
12/20/2013 22:00,9,,,,,,,,,,,,,,,,,
12/20/2013 23:00,2,,,,,,,,,,,,,,,,,
12/21/2013 0:00,1,,,,,,,,,,,,,,,,,
12/21/2013 1:00,-4,,,,,,,,,,,,,,,,,
12/21/2013 2:00,-1,,,,,,,,,,,,,,,,,
12/21/2013 3:00,1,,,,,,,,,,,,,,,,,
12/21/2013 4:00,0,,,,,,,,,,,,,,,,,
12/21/2013 5:00,-4,,,,,,,,,,,,,,,,,
12/21/2013 6:00,-3,,,,,,,,,,,,,,,,,
12/21/2013 7:00,-1,,,,,,,,,,,,,,,,,
12/21/2013 8:00,-12,,,,,,,,,,,,,,,,,
12/21/2013 9:00,3,,,,,,,,,,,,,,,,,
12/21/2013 10:00,12,,,,,,,,,,,,,,,,,
12/21/2013 11:00,10,,,,,,,,,,,,,,,,,
12/21/2013 12:00,7,,,,,,,,,,,,,,,,,
12/21/2013 13:00,5,,,,,,,,,,,,,,,,,
12/21/2013 14:00,1,,,,,,,,,,,,,,,,,
12/21/2013 15:00,0,,,,,,,,,,,,,,,,,
12/21/2013 16:00,0,,,,,,,,,,,,,,,,,
12/21/2013 17:00,-1,,,,,,,,,,,,,,,,,
12/21/2013 18:00,0,,,,,,,,,,,,,,,,,
12/21/2013 19:00,1,,,,,,,,,,,,,,,,,
12/21/2013 20:00,0,,,,,,,,,,,,,,,,,
12/21/2013 21:00,-1,,,,,,,,,,,,,,,,,
12/21/2013 22:00,0,,,,,,,,,,,,,,,,,
12/21/2013 23:00,5,,,,,,,,,,,,,,,,,
12/22/2013 0:00,5,,,,,,,,,,,,,,,,,
12/22/2013 1:00,2,,,,,,,,,,,,,,,,,
12/22/2013 2:00,0,,,,,,,,,,,,,,,,,
12/22/2013 3:00,-2,,,,,,,,,,,,,,,,,
12/22/2013 4:00,-4,,,,,,,,,,,,,,,,,
12/22/2013 5:00,-31,,,,,,,,,,,,,,,,,
12/22/2013 6:00,-79,,,,,,,,,,,,,,,,,
12/22/2013 7:00,-95,,,,,,,,,,,,,,,,,
12/22/2013 8:00,-96,,,,,,,,,,,,,,,,,
12/22/2013 9:00,-8,,,,,,,,,,,,,,,,,
12/22/2013 10:00,2,,,,,,,,,,,,,,,,,
12/22/2013 11:00,-2,,,,,,,,,,,,,,,,,
12/22/2013 12:00,1,,,,,,,,,,,,,,,,,
12/22/2013 13:00,-2,,,,,,,,,,,,,,,,,
12/22/2013 14:00,2,,,,,,,,,,,,,,,,,
12/22/2013 15:00,7,,,,,,,,,,,,,,,,,
12/22/2013 16:00,4,,,,,,,,,,,,,,,,,
12/22/2013 17:00,-5,,,,,,,,,,,,,,,,,
12/22/2013 18:00,-2,,,,,,,,,,,,,,,,,
12/22/2013 19:00,-68,,,,,,,,,,,,,,,,,
12/22/2013 20:00,-69,,,,,,,,,,,,,,,,,
12/22/2013 21:00,-94,,,,,,,,,,,,,,,,,
12/22/2013 22:00,-97,,,,,,,,,,,,,,,,,
12/22/2013 23:00,-94,,,,,,,,,,,,,,,,,
12/23/2013 0:00,-70,,,,,,,,,,,,,,,,,
12/23/2013 1:00,-22,,,,,,,,,,,,,,,,,
12/23/2013 2:00,-101,,,,,,,,,,,,,,,,,
12/23/2013 3:00,-99,,,,,,,,,,,,,,,,,
12/23/2013 4:00,-99,,,,,,,,,,,,,,,,,
12/23/2013 5:00,-100,,,,,,,,,,,,,,,,,
12/23/2013 6:00,-96,,,,,,,,,,,,,,,,,
12/23/2013 7:00,-55,,,,,,,,,,,,,,,,,
12/23/2013 8:00,-10,,,,,,,,,,,,,,,,,
12/23/2013 9:00,-3,,,,,,,,,,,,,,,,,
12/23/2013 10:00,-73,,,,,,,,,,,,,,,,,
12/23/2013 11:00,-75,,,,,,,,,,,,,,,,,
12/23/2013 12:00,-8,,,,,,,,,,,,,,,,,
12/23/2013 13:00,-1,,,,,,,,,,,,,,,,,
12/23/2013 14:00,-72,,,,,,,,,,,,,,,,,
12/23/2013 15:00,-95,,,,,,,,,,,,,,,,,
12/23/2013 16:00,-98,,,,,,,,,,,,,,,,,
12/23/2013 17:00,-97,,,,,,,,,,,,,,,,,
12/23/2013 18:00,-100,,,,,,,,,,,,,,,,,
12/23/2013 19:00,-92,,,,,,,,,,,,,,,,,
12/23/2013 20:00,-94,,,,,,,,,,,,,,,,,
12/23/2013 21:00,-95,,,,,,,,,,,,,,,,,
12/23/2013 22:00,-90,,,,,,,,,,,,,,,,,
12/23/2013 23:00,-86,,,,,,,,,,,,,,,,,
12/24/2013 0:00,-93,,,,,,,,,,,,,,,,,
12/24/2013 1:00,-97,,,,,,,,,,,,,,,,,
12/24/2013 2:00,-1,,,,,,,,,,,,,,,,,
12/24/2013 3:00,12,,,,,,,,,,,,,,,,,
12/24/2013 4:00,9,,,,,,,,,,,,,,,,,
12/24/2013 5:00,-1,,,,,,,,,,,,,,,,,
12/24/2013 6:00,-65,,,,,,,,,,,,,,,,,
12/24/2013 7:00,-81,,,,,,,,,,,,,,,,,
12/24/2013 8:00,-51,,,,,,,,,,,,,,,,,
12/24/2013 9:00,-56,,,,,,,,,,,,,,,,,
12/24/2013 10:00,-39,,,,,,,,,,,,,,,,,
12/24/2013 11:00,-41,,,,,,,,,,,,,,,,,
12/24/2013 12:00,-78,,,,,,,,,,,,,,,,,
12/24/2013 13:00,-62,,,,,,,,,,,,,,,,,
12/24/2013 14:00,-61,,,,,,,,,,,,,,,,,
12/24/2013 15:00,-61,,,,,,,,,,,,,,,,,
12/24/2013 16:00,-95,,,,,,,,,,,,,,,,,
12/24/2013 17:00,-108,,,,,,,,,,,,,,,,,
12/24/2013 18:00,-87,,,,,,,,,,,,,,,,,
12/24/2013 19:00,-83,,,,,,,,,,,,,,,,,
12/24/2013 20:00,-84,,,,,,,,,,,,,,,,,
12/24/2013 21:00,-93,,,,,,,,,,,,,,,,,
12/24/2013 22:00,-48,,,,,,,,,,,,,,,,,
12/24/2013 23:00,-20,,,,,,,,,,,,,,,,,
12/25/2013 0:00,-11,,,,,,,,,,,,,,,,,
12/25/2013 1:00,-3,,,,,,,,,,,,,,,,,
12/25/2013 2:00,11,,,,,,,,,,,,,,,,,
12/25/2013 3:00,19,,,,,,,,,,,,,,,,,
12/25/2013 4:00,-15,,,,,,,,,,,,,,,,,
12/25/2013 5:00,-5,,,,,,,,,,,,,,,,,
12/25/2013 6:00,-3,,,,,,,,,,,,,,,,,
12/25/2013 7:00,1,,,,,,,,,,,,,,,,,
12/25/2013 8:00,-5,,,,,,,,,,,,,,,,,
12/25/2013 9:00,-5,,,,,,,,,,,,,,,,,
12/25/2013 10:00,0,,,,,,,,,,,,,,,,,
12/25/2013 11:00,-39,,,,,,,,,,,,,,,,,
12/25/2013 12:00,-41,,,,,,,,,,,,,,,,,
12/25/2013 13:00,-40,,,,,,,,,,,,,,,,,
12/25/2013 14:00,-74,,,,,,,,,,,,,,,,,
12/25/2013 15:00,-78,,,,,,,,,,,,,,,,,
12/25/2013 16:00,-79,,,,,,,,,,,,,,,,,
12/25/2013 17:00,-101,,,,,,,,,,,,,,,,,
12/25/2013 18:00,-100,,,,,,,,,,,,,,,,,
12/25/2013 19:00,-95,,,,,,,,,,,,,,,,,
12/25/2013 20:00,-97,,,,,,,,,,,,,,,,,
12/25/2013 21:00,-95,,,,,,,,,,,,,,,,,
12/25/2013 22:00,-95,,,,,,,,,,,,,,,,,
12/25/2013 23:00,-49,,,,,,,,,,,,,,,,,
12/26/2013 0:00,-1,,,,,,,,,,,,,,,,,
12/26/2013 1:00,-4,,,,,,,,,,,,,,,,,
12/26/2013 2:00,-5,,,,,,,,,,,,,,,,,
12/26/2013 3:00,-1,,,,,,,,,,,,,,,,,
12/26/2013 4:00,-61,,,,,,,,,,,,,,,,,
12/26/2013 5:00,-64,,,,,,,,,,,,,,,,,
12/26/2013 6:00,-94,,,,,,,,,,,,,,,,,
12/26/2013 7:00,-94,,,,,,,,,,,,,,,,,
12/26/2013 8:00,-93,,,,,,,,,,,,,,,,,
12/26/2013 9:00,-93,,,,,,,,,,,,,,,,,
12/26/2013 10:00,-96,,,,,,,,,,,,,,,,,
12/26/2013 11:00,-97,,,,,,,,,,,,,,,,,
12/26/2013 12:00,-97,,,,,,,,,,,,,,,,,
12/26/2013 13:00,-95,,,,,,,,,,,,,,,,,
12/26/2013 14:00,-99,,,,,,,,,,,,,,,,,
12/26/2013 15:00,-99,,,,,,,,,,,,,,,,,
12/26/2013 16:00,-96,,,,,,,,,,,,,,,,,
12/26/2013 17:00,-98,,,,,,,,,,,,,,,,,
12/26/2013 18:00,-93,,,,,,,,,,,,,,,,,
12/26/2013 19:00,-97,,,,,,,,,,,,,,,,,
12/26/2013 20:00,-87,,,,,,,,,,,,,,,,,
12/26/2013 21:00,-98,,,,,,,,,,,,,,,,,
12/26/2013 22:00,-78,,,,,,,,,,,,,,,,,
12/26/2013 23:00,-25,,,,,,,,,,,,,,,,,
12/27/2013 0:00,2,,,,,,,,,,,,,,,,,
12/27/2013 1:00,-2,,,,,,,,,,,,,,,,,
12/27/2013 2:00,0,,,,,,,,,,,,,,,,,
12/27/2013 3:00,2,,,,,,,,,,,,,,,,,
12/27/2013 4:00,-1,,,,,,,,,,,,,,,,,
12/27/2013 5:00,7,,,,,,,,,,,,,,,,,
12/27/2013 6:00,14,,,,,,,,,,,,,,,,,
12/27/2013 7:00,-36,,,,,,,,,,,,,,,,,
12/27/2013 8:00,-82,,,,,,,,,,,,,,,,,
12/27/2013 9:00,-103,,,,,,,,,,,,,,,,,
12/27/2013 10:00,-94,,,,,,,,,,,,,,,,,
12/27/2013 11:00,-99,,,,,,,,,,,,,,,,,
12/27/2013 12:00,-8,,,,,,,,,,,,,,,,,
12/27/2013 13:00,-2,,,,,,,,,,,,,,,,,
12/27/2013 14:00,1,,,,,,,,,,,,,,,,,
12/27/2013 15:00,0,,,,,,,,,,,,,,,,,
12/27/2013 16:00,-3,,,,,,,,,,,,,,,,,
12/27/2013 17:00,-7,,,,,,,,,,,,,,,,,
12/27/2013 18:00,-3,,,,,,,,,,,,,,,,,